Location: Demmingen
(48.6757°N, 10.4375°E)
Time: 13:43:17
(UTC+00:00)

CZ-2C R/B - Pass Details

Date: 16 August 2024
Orbit: 782 x 869 km, 98.3° (Epoch: 15 September)

Event Time Altitude Azimuth Distance (km) Brightness Sun altitude
Exits shadow 00:35:56 36° 126° (SE) 1,317 3.5 -25.6°
Maximum altitude 00:37:56 55° 70° (ENE) 1,006 3.2 -25.5°
Drops below altitude 10° 00:43:11 10° 354° (N) 2,432 5.9 -25.2°
Sets 00:45:33 0° 350° (N) 3,356 6.7 -25.0°
